User: anonymous   Login
Location: Monreal
(44.6700°N, 73.7400°W)
Time: 12:47:59
(UTC-05:00)
Language:

CUTE-I - Orbit

View from above orbital plane
View from above orbital plane
View from above satellite
View from above satellite

Ground track
Ground track

The orbit data is extracted from the following two-line orbital elements,

1 27844U 03031E   18054.96343835 +.00000056 +00000-0 +44988-4 0  9999
2 27844 098.6893 065.2780 0009413 345.6329 014.4580 14.22095923760065
Epoch (UTC): 23 February 2018 23:07:21
Eccentricity: 0.0009413
inclination: 98.6893°
perigee height: 811 km
apogee height: 825 km
right ascension of ascending node: 65.2780°
argument of perigee: 345.6329°
revolutions per day: 14.22095923
mean anomaly at epoch: 14.4580°
orbit number at epoch: 76006

The dashed part of the orbit path shows where the satellite is in the earth's shadow,  

DLR